Tracking 19717 objects as of 25-Jun-2019
HD Live streaming from Space Station
objects crossing your sky now

FLOCK 3P 69

Track FLOCK 3P 69 now!
10-day predictions
FLOCK 3P 69 is classified as:


NORAD ID: 42020
Int'l Code: 2017-008CA
Perigee: 489.7 km
Apogee: 503.0 km
Inclination: 97.4 °
Period: 94.4 minutes
Semi major axis: 6867 km
RCS: Unknown
Launch date: February 15, 2017
Source: United States (US)
Launch site: SRIHARIKOTA (SRI)
aabbcc
Your satellite tracking list
Your tracking list is empty




NASA's NSSDC Master Catalog

Two Line Element Set (TLE):
1 42020U 17008CA  19176.17295664  .00001453  00000-0  60145-4 0  9991
2 42020  97.4092 243.4617 0009630 116.6198 243.6027 15.25524618129676
Source of the keplerian elements: AFSPC